Regional Weather Roundup
Issued by NWS

Home | Current Version | Previous Version | Graphics & Text | Print | Product List | Glossary On
Versions: 1 2 3 4 5 6 7 8 9 10 11 12 13 14 15 16 17 18 19 20 21 22 23 24 25 26 27 28 29 30 31 32 33 34 35 36 37 38 39 40 41 42 43 44 45 46 47 48 49 50
000
ASUS43 KLSX 180507
RWRMO

WEATHER SUMMARY FOR MISSOURI
NATIONAL WEATHER SERVICE SPRINGFIELD MO
1200 AM CDT WED OCT 18 2017

NOTE: "FAIR" INDICATES FEW OR NO CLOUDS BELOW 12,000 FEET WITH NO
       SIGNIFICANT WEATHER AND/OR OBSTRUCTIONS TO VISIBILITY.
       CURRENT SKY AND/OR WEATHER CONDITIONS ARE NOT AVAILABLE FOR
       CHILLICOTHE AND FARMINGTON.

MOZ001>031-035>038-043-044-053-054-180600-
...NORTHERN AND WESTERN MISSOURI...

CITY           SKY/WX    TMP DP  RH WIND       PRES   REMARKS
KANSAS CTY INT CLEAR     56  47  71 S12       30.09S
KANSAS C DTWN  CLEAR     58  47  66 S7        30.10S
LEE`S SUMMIT   CLEAR     57  47  69 S12       30.11F
ST JOSEPH      CLEAR     58  48  69 S7        30.07F
CHILLICOTHE      N/A     50  46  86 CALM      30.11F
KIRKSVILLE     CLEAR     52  47  83 S7        30.12F

$$
MOZ066>068-077>081-088>096-101>105-180600-
...SOUTHWEST MISSOURI...

CITY           SKY/WX    TMP DP  RH WIND       PRES   REMARKS
SPRINGFIELD    CLEAR     52  40  63 S9        30.17S
JOPLIN         CLEAR     53  44  71 SE7       30.16S
BRANSON        CLEAR     54  37  54 CALM      30.20F

$$
MOZ032>034-039>042-045>050-055>058-069>072-180600-
...CENTRAL MISSOURI...

CITY           SKY/WX    TMP DP  RH WIND       PRES   REMARKS
COLUMBIA       CLEAR     51  42  71 S8        30.16S
JEFFERSON CITY CLEAR     50  42  74 SE7       30.16S
ROLLA          CLEAR     50  40  68 S9        30.18F
SEDALIA        CLEAR     55  45  68 S10       30.14F
WHITEMAN AFB   CLEAR     51  45  80 S8        30.09S
WARRENSBURG    CLEAR     52  45  76 S5        30.13R
OSAGE BEACH    CLEAR     52  40  63 S6        30.17F

$$
MOZ051-052-059>065-180600-
...EAST CENTRAL MISSOURI...

CITY           SKY/WX    TMP DP  RH WIND       PRES   REMARKS
ST LOUIS INTL  CLEAR     56  41  57 S9        30.20F
SPIRIT OF STL  CLEAR     44  42  93 CALM      30.19S
ST CHARLES     CLEAR     46  42  86 CALM      30.19F

$$
MOZ072>076-082>087-097>100-106>115-180600-
...SOUTH CENTRAL AND SOUTHEAST MISSOURI...

CITY           SKY/WX    TMP DP  RH WIND       PRES   REMARKS
CAPE GIRARDEAU CLEAR     42  39  89 E3        30.23F
FARMINGTON     CLEAR     47  40  76 CALM      30.22S
POPLAR BLUFF   CLEAR     42  41  96 N3        30.23F
WEST PLAINS    CLEAR     52  39  61 S6        30.22F

$$



USA.gov is the U.S. government's official web portal to all federal, state and local government web resources and services.